UAL1280 KDCA-KBOS

Flight info

Callsign UAL1280
Flight time N/A
Altitude 37000
Route DQO142004 NEWES ROBUC3 KBOS
Aircraft A320/M-SDE3FGHIRWY/LB1

Departure

Time N/A
Airport Ronald Reagan Washington National Airport (KDCA)

Arrival

Time 2026-05-06 02:10
Airport Boston Logan International Airport (KBOS)
Time Latitude Longitude Altitude Speed Heading
2026-05-06 01:21 39.92106 -75.04560 35755 ft 461 kts 47°
2026-05-06 01:22 39.94072 -75.01265 36056 ft 461 kts 46°
2026-05-06 01:22 39.96053 -74.97971 36309 ft 461 kts 46°
2026-05-06 01:22 39.98035 -74.94680 36567 ft 461 kts 46°
2026-05-06 01:22 39.99984 -74.91430 36825 ft 460 kts 46°
2026-05-06 01:23 40.03938 -74.84810 36936 ft 465 kts 46°
2026-05-06 01:23 40.07910 -74.78128 36914 ft 466 kts 46°
2026-05-06 01:24 40.11882 -74.71419 36937 ft 467 kts 46°
2026-05-06 01:24 40.15855 -74.64701 36910 ft 468 kts 46°
2026-05-06 01:25 40.19838 -74.57969 36907 ft 468 kts 46°
2026-05-06 01:25 40.23814 -74.51214 36914 ft 468 kts 46°
2026-05-06 01:26 40.27787 -74.44442 36932 ft 468 kts 46°
2026-05-06 01:26 40.31758 -74.37680 36961 ft 469 kts 46°
2026-05-06 01:27 40.35706 -74.30945 35977 ft 469 kts 47°
2026-05-06 01:27 40.37709 -74.27524 35079 ft 476 kts 47°
2026-05-06 01:27 40.39730 -74.24063 34226 ft 480 kts 48°
2026-05-06 01:28 40.41771 -74.20564 33352 ft 484 kts 48°
2026-05-06 01:28 40.43795 -74.17088 32512 ft 486 kts 49°
2026-05-06 01:28 40.45842 -74.13563 31825 ft 484 kts 49°
2026-05-06 01:28 40.47884 -74.10045 31200 ft 483 kts 50°
2026-05-06 01:29 40.49914 -74.06549 30605 ft 481 kts 50°
2026-05-06 01:29 40.51940 -74.03059 30042 ft 478 kts 51°
2026-05-06 01:29 40.53950 -73.99591 29389 ft 475 kts 51°
2026-05-06 01:29 40.55944 -73.96146 28828 ft 470 kts 51°
2026-05-06 01:30 40.57918 -73.92733 28251 ft 467 kts 51°
2026-05-06 01:30 40.59874 -73.89346 27688 ft 463 kts 51°
2026-05-06 01:30 40.61816 -73.85980 27111 ft 460 kts 51°
2026-05-06 01:30 40.63745 -73.82635 26567 ft 457 kts 51°
2026-05-06 01:31 40.65652 -73.79325 26308 ft 447 kts 51°
2026-05-06 01:31 40.67491 -73.76126 26548 ft 434 kts 51°
2026-05-06 01:31 40.69309 -73.72960 26794 ft 434 kts 51°
2026-05-06 01:31 40.71131 -73.69777 26926 ft 435 kts 51°
2026-05-06 01:32 40.72930 -73.66634 26931 ft 434 kts 51°
2026-05-06 01:32 40.74750 -73.63457 26919 ft 433 kts 51°
2026-05-06 01:32 40.76564 -73.60285 26937 ft 432 kts 51°
2026-05-06 01:32 40.78369 -73.57122 26911 ft 432 kts 51°
2026-05-06 01:33 40.80179 -73.53954 26940 ft 432 kts 51°
2026-05-06 01:33 40.81989 -73.50788 26910 ft 432 kts 51°
2026-05-06 01:33 40.83799 -73.47625 26910 ft 432 kts 51°
2026-05-06 01:33 40.85623 -73.44467 26909 ft 432 kts 50°
2026-05-06 01:34 40.87521 -73.41398 26793 ft 432 kts 47°
2026-05-06 01:34 40.89496 -73.38437 26890 ft 430 kts 46°
2026-05-06 01:34 40.91494 -73.35559 26909 ft 431 kts 45°
2026-05-06 01:34 40.93535 -73.32655 26909 ft 431 kts 45°
2026-05-06 01:35 40.95574 -73.29738 26814 ft 432 kts 45°
2026-05-06 01:35 40.97588 -73.26810 26573 ft 428 kts 46°
2026-05-06 01:35 40.99572 -73.23886 26322 ft 426 kts 46°
2026-05-06 01:35 41.01538 -73.20958 26082 ft 425 kts 46°
2026-05-06 01:36 41.03496 -73.18025 25832 ft 424 kts 46°
2026-05-06 01:36 41.05448 -73.15096 25587 ft 422 kts 46°
2026-05-06 01:36 41.07393 -73.12186 25340 ft 421 kts 46°
2026-05-06 01:36 41.09333 -73.09283 25102 ft 420 kts 46°
2026-05-06 01:37 41.11267 -73.06386 24879 ft 419 kts 46°
2026-05-06 01:37 41.13197 -73.03500 24642 ft 417 kts 46°
2026-05-06 01:37 41.15098 -73.00665 24394 ft 414 kts 46°
2026-05-06 01:37 41.17010 -72.97807 23964 ft 414 kts 47°
2026-05-06 01:38 41.18920 -72.94943 23469 ft 414 kts 47°
2026-05-06 01:38 41.20770 -72.92004 23004 ft 413 kts 54°
2026-05-06 01:38 41.22217 -72.88760 22859 ft 406 kts 63°
2026-05-06 01:38 41.23489 -72.85408 22756 ft 406 kts 63°
2026-05-06 01:39 41.24767 -72.82067 22510 ft 404 kts 62°
2026-05-06 01:39 41.26043 -72.78744 22250 ft 403 kts 62°
2026-05-06 01:39 41.27321 -72.75415 21983 ft 402 kts 62°
2026-05-06 01:39 41.28589 -72.72112 21723 ft 401 kts 63°
2026-05-06 01:40 41.29853 -72.68809 21482 ft 400 kts 63°
2026-05-06 01:40 41.31112 -72.65510 21253 ft 400 kts 63°
2026-05-06 01:40 41.32368 -72.62204 21002 ft 400 kts 63°
2026-05-06 01:40 41.33615 -72.58914 20941 ft 398 kts 63°
2026-05-06 01:41 41.34862 -72.55627 20961 ft 398 kts 63°
2026-05-06 01:41 41.36107 -72.52343 20961 ft 397 kts 63°
2026-05-06 01:41 41.37349 -72.49058 20961 ft 397 kts 62°
2026-05-06 01:41 41.38592 -72.45770 20961 ft 397 kts 63°
2026-05-06 01:42 41.39831 -72.42487 20959 ft 397 kts 63°
2026-05-06 01:42 41.40786 -72.39953 20962 ft 397 kts 63°
2026-05-06 01:42 41.42028 -72.36662 20959 ft 397 kts 63°
2026-05-06 01:42 41.43266 -72.33376 20954 ft 397 kts 63°
2026-05-06 01:43 41.44505 -72.30087 20949 ft 397 kts 63°
2026-05-06 01:43 41.45723 -72.26842 20943 ft 397 kts 63°
2026-05-06 01:43 41.46956 -72.23555 20940 ft 396 kts 63°
2026-05-06 01:43 41.48188 -72.20279 20930 ft 396 kts 63°
2026-05-06 01:44 41.49412 -72.16990 20674 ft 395 kts 63°
2026-05-06 01:44 41.50614 -72.13714 20425 ft 393 kts 63°
2026-05-06 01:44 41.51813 -72.10427 20180 ft 392 kts 63°
2026-05-06 01:44 41.52999 -72.07162 19936 ft 391 kts 64°
2026-05-06 01:45 41.54184 -72.03895 19694 ft 390 kts 64°
2026-05-06 01:45 41.55362 -72.00643 19454 ft 389 kts 64°
2026-05-06 01:45 41.56491 -71.97357 19219 ft 388 kts 66°
2026-05-06 01:45 41.57530 -71.94030 18985 ft 387 kts 68°
2026-05-06 01:46 41.58511 -71.90685 18747 ft 387 kts 69°
2026-05-06 01:46 41.59472 -71.87337 18511 ft 385 kts 69°
2026-05-06 01:46 41.60427 -71.84008 18285 ft 384 kts 69°
2026-05-06 01:46 41.61384 -71.80692 18024 ft 382 kts 69°
2026-05-06 01:47 41.62345 -71.77387 17755 ft 381 kts 69°
2026-05-06 01:47 41.63310 -71.74097 17486 ft 379 kts 69°
2026-05-06 01:47 41.64276 -71.70826 17238 ft 377 kts 69°
2026-05-06 01:47 41.65237 -71.67570 16978 ft 376 kts 69°
2026-05-06 01:48 41.66191 -71.64325 16720 ft 374 kts 69°
2026-05-06 01:48 41.67139 -71.61085 16468 ft 373 kts 69°
2026-05-06 01:48 41.68075 -71.57876 16214 ft 368 kts 69°
2026-05-06 01:48 41.69003 -71.54703 15954 ft 364 kts 69°
2026-05-06 01:49 41.69921 -71.51559 15701 ft 362 kts 69°
2026-05-06 01:49 41.70834 -71.48434 15455 ft 360 kts 69°
2026-05-06 01:49 41.71745 -71.45311 15218 ft 359 kts 69°
2026-05-06 01:49 41.72757 -71.42264 14967 ft 358 kts 60°
2026-05-06 01:50 41.73983 -71.39425 14731 ft 357 kts 59°
2026-05-06 01:50 41.75220 -71.36549 14492 ft 355 kts 59°
2026-05-06 01:50 41.76443 -71.33687 14262 ft 354 kts 60°
2026-05-06 01:50 41.77663 -71.30831 14018 ft 352 kts 59°
2026-05-06 01:51 41.78881 -71.27981 13780 ft 351 kts 59°
2026-05-06 01:51 41.80089 -71.25148 13518 ft 350 kts 59°
2026-05-06 01:51 41.81286 -71.22328 13256 ft 346 kts 60°
2026-05-06 01:51 41.82466 -71.19545 13000 ft 340 kts 60°
2026-05-06 01:52 41.83628 -71.16805 12692 ft 337 kts 60°
2026-05-06 01:52 41.84787 -71.14075 12283 ft 337 kts 60°
2026-05-06 01:52 41.85938 -71.11359 12035 ft 332 kts 60°
2026-05-06 01:52 41.87080 -71.08688 11728 ft 329 kts 60°
2026-05-06 01:53 41.88226 -71.06043 11399 ft 327 kts 59°
2026-05-06 01:53 41.89366 -71.03417 11104 ft 325 kts 59°
2026-05-06 01:53 41.90507 -71.00787 10862 ft 326 kts 59°
2026-05-06 01:53 41.91642 -70.98164 10619 ft 325 kts 60°
2026-05-06 01:54 41.92774 -70.95537 10381 ft 324 kts 60°
2026-05-06 01:54 41.93899 -70.92925 10136 ft 323 kts 60°
2026-05-06 01:54 41.95019 -70.90320 9932 ft 321 kts 60°
2026-05-06 01:54 41.96137 -70.87717 9802 ft 322 kts 59°
2026-05-06 01:55 41.97240 -70.85152 9676 ft 320 kts 60°
2026-05-06 01:55 41.98353 -70.82559 9535 ft 320 kts 60°
2026-05-06 01:55 41.99465 -70.79965 9414 ft 319 kts 59°
2026-05-06 01:55 42.00581 -70.77379 9295 ft 320 kts 58°
2026-05-06 01:56 42.01914 -70.74996 9142 ft 319 kts 46°
2026-05-06 01:56 42.03401 -70.72782 9018 ft 318 kts 46°
2026-05-06 01:56 42.04884 -70.70566 8887 ft 319 kts 46°
2026-05-06 01:56 42.06364 -70.68346 8759 ft 318 kts 46°
2026-05-06 01:57 42.07844 -70.66128 8591 ft 317 kts 46°
2026-05-06 01:57 42.09329 -70.63947 8307 ft 315 kts 41°
2026-05-06 01:57 42.11058 -70.62181 8008 ft 309 kts 25°
2026-05-06 01:57 42.13015 -70.61053 7718 ft 303 kts 10°
2026-05-06 01:58 42.15061 -70.60447 7427 ft 300 kts
2026-05-06 01:58 42.17103 -70.59882 7158 ft 299 kts
2026-05-06 01:58 42.19135 -70.59316 6829 ft 297 kts
2026-05-06 01:58 42.21154 -70.58748 6547 ft 296 kts
2026-05-06 01:59 42.23173 -70.58178 6261 ft 295 kts
2026-05-06 01:59 42.25150 -70.57624 5965 ft 294 kts
2026-05-06 01:59 42.27149 -70.57071 5685 ft 293 kts
2026-05-06 01:59 42.29142 -70.56524 5406 ft 292 kts
2026-05-06 02:00 42.31125 -70.56401 5134 ft 281 kts 346°
2026-05-06 02:00 42.32973 -70.57020 4966 ft 269 kts 329°
2026-05-06 02:00 42.34567 -70.58242 4965 ft 260 kts 314°
2026-05-06 02:00 42.35881 -70.59875 5086 ft 255 kts 307°
2026-05-06 02:01 42.37160 -70.61558 5328 ft 257 kts 308°
2026-05-06 02:01 42.38449 -70.63252 5579 ft 259 kts 308°
2026-05-06 02:01 42.39739 -70.64947 5822 ft 259 kts 308°
2026-05-06 02:01 42.41036 -70.66650 5926 ft 260 kts 308°
2026-05-06 02:02 42.42334 -70.68355 5950 ft 260 kts 308°
2026-05-06 02:02 42.43630 -70.70056 5955 ft 259 kts 308°
2026-05-06 02:02 42.44922 -70.71753 5956 ft 259 kts 308°
2026-05-06 02:02 42.46215 -70.73455 5958 ft 259 kts 308°
2026-05-06 02:03 42.47505 -70.75158 5960 ft 259 kts 308°
2026-05-06 02:03 42.48778 -70.76841 5960 ft 259 kts 308°
2026-05-06 02:03 42.50053 -70.78526 5959 ft 249 kts 308°
2026-05-06 02:03 42.51268 -70.80108 5960 ft 235 kts 308°
2026-05-06 02:04 42.52416 -70.81582 5962 ft 219 kts 307°
2026-05-06 02:04 42.53490 -70.82998 5967 ft 213 kts 306°
2026-05-06 02:04 42.54568 -70.84452 5567 ft 225 kts 306°
2026-05-06 02:04 42.55686 -70.85975 5145 ft 229 kts 304°
2026-05-06 02:05 42.56412 -70.87793 4789 ft 215 kts 274°
2026-05-06 02:05 42.56265 -70.89742 4436 ft 208 kts 244°
2026-05-06 02:05 42.55355 -70.91248 4053 ft 212 kts 216°
2026-05-06 02:05 42.53995 -70.91990 3963 ft 207 kts 205°
2026-05-06 02:06 42.52650 -70.92650 3962 ft 202 kts 207°
2026-05-06 02:06 42.51359 -70.93285 3848 ft 193 kts 207°
2026-05-06 02:06 42.50117 -70.93892 3619 ft 186 kts 206°
2026-05-06 02:06 42.48915 -70.94477 3250 ft 179 kts 207°
2026-05-06 02:07 42.47765 -70.95036 2952 ft 169 kts 207°
2026-05-06 02:07 42.46717 -70.95544 2694 ft 158 kts 207°
2026-05-06 02:07 42.45713 -70.96032 2448 ft 147 kts 207°
2026-05-06 02:07 42.44776 -70.96487 2114 ft 140 kts 207°
2026-05-06 02:08 42.43874 -70.96926 1804 ft 134 kts 206°
2026-05-06 02:08 42.43007 -70.97347 1471 ft 131 kts 207°
2026-05-06 02:08 42.42168 -70.97755 1234 ft 124 kts 206°
2026-05-06 02:08 42.41387 -70.98133 903 ft 121 kts 204°
2026-05-06 02:09 42.40548 -70.98539 747 ft 135 kts 201°
2026-05-06 02:09 42.39654 -70.98965 628 ft 134 kts 201°
2026-05-06 02:09 42.38826 -70.99379 380 ft 121 kts 202°
2026-05-06 02:09 42.38004 -70.99768 224 ft 128 kts 201°
2026-05-06 02:10 42.37206 -71.00161 36 ft 111 kts 201°
2026-05-06 02:10 42.36615 -71.00456 25 ft 67 kts 199°
2026-05-06 02:10 42.36338 -71.00588 25 ft 18 kts 200°
2026-05-06 02:10 42.36189 -71.00664 27 ft 31 kts 206°
2026-05-06 02:11 42.36153 -71.00819 29 ft 13 kts 294°
2026-05-06 02:11 42.36190 -71.00941 28 ft 15 kts 292°
2026-05-06 02:11 42.36236 -71.01082 25 ft 18 kts 296°
2026-05-06 02:11 42.36296 -71.01236 27 ft 19 kts 306°
2026-05-06 02:12 42.36344 -71.01329 27 ft 7 kts 302°
2026-05-06 02:12 42.36385 -71.01418 26 ft 16 kts 302°
2026-05-06 02:12 42.36440 -71.01549 26 ft 13 kts 298°
2026-05-06 02:12 42.36432 -71.01596 28 ft 10 kts 212°
2026-05-06 02:13 42.36401 -71.01621 26 ft 2 kts 212°
2026-05-06 02:13 42.36396 -71.01624 26 ft 0 kts 212°